This is the latest recevied weather packets stored in our database for station/object K7ZQU-7. If no packets are shown the sender has not sent any weather packets the latest 10 day(s).
| Time | Temp. | Humidity | Pressure | Rain* | Wind** | Luminosity | Snow |
|---|---|---|---|---|---|---|---|
| 1778010716 | 19.44° C | 49% | 1014.7 hPa | 0 mm | 0.45 m/s, 304° | - | - |
| 1778010417 | 19.44° C | 50% | 1014.6 hPa | 0 mm | 1.79 m/s, 262° | - | - |
| 1778010118 | 19.44° C | 50% | 1014.6 hPa | 0 mm | 0.89 m/s, 335° | - | - |
| 1778009820 | 19.44° C | 51% | 1014.6 hPa | 0 mm | 1.34 m/s, 325° | - | - |
| 1778009518 | 19.44° C | 50% | 1014.6 hPa | 0 mm | 1.34 m/s, 322° | - | - |
| 1778009219 | 19.44° C | 53% | 1014.5 hPa | 0 mm | 1.79 m/s, 295° | - | - |
| 1778008920 | 19.44° C | 52% | 1014.5 hPa | 0 mm | 1.79 m/s, 321° | - | - |
| 1778008323 | 19.44° C | 52% | 1014.5 hPa | 0 mm | 1.79 m/s, 322° | - | - |
| 1778008021 | 18.89° C | 54% | 1014.5 hPa | 0 mm | 1.34 m/s, 304° | - | - |
| 1778007722 | 18.33° C | 55% | 1014.5 hPa | 0 mm | 1.79 m/s, 297° | - | - |
| 1778007423 | 18.33° C | 54% | 1014.5 hPa | 0 mm | 2.24 m/s, 330° | - | - |
| 1778007124 | 18.33° C | 55% | 1014.4 hPa | 0 mm | 1.79 m/s, 335° | - | - |
| 1778006523 | 17.78° C | 56% | 1014.4 hPa | 0 mm | 1.34 m/s, 302° | - | - |
| 1778005925 | 17.22° C | 57% | 1014.3 hPa | 0 mm | 0.89 m/s, 295° | - | - |
| 1778005626 | 17.22° C | 57% | 1014.3 hPa | 0 mm | 0.89 m/s, 10° | - | - |
| 1778005328 | 16.67° C | 60% | 1014.3 hPa | 0 mm | 1.34 m/s, 291° | - | - |
| 1778005026 | 16.11° C | 61% | 1014.1 hPa | 0 mm | 0.89 m/s, 226° | - | - |
| 1778004727 | 16.11° C | 61% | 1014.1 hPa | 0 mm | 1.34 m/s, 336° | - | - |
| 1778004428 | 15.56° C | 65% | 1014.1 hPa | 0 mm | 3.13 m/s, 323° | - | - |
| 1778004129 | 15.56° C | 64% | 1014.1 hPa | 0 mm | 1.79 m/s, 335° | - | - |
| 1778003830 | 15° C | 65% | 1014 hPa | 0 mm | 1.34 m/s, 352° | - | - |
| 1778003528 | 15° C | 68% | 1014 hPa | 0 mm | 0.45 m/s, 307° | - | - |
| 1778003229 | 15° C | 68% | 1013.9 hPa | 0 mm | 1.79 m/s, 349° | - | - |
| 1778002930 | 14.44° C | 69% | 1013.9 hPa | 0 mm | 1.34 m/s, 280° | - | - |
| 1778002631 | 14.44° C | 69% | 1013.8 hPa | 0 mm | 0.89 m/s, 305° | - | - |
* Rain latest hour (hover to see other rain measurements)
** Current wind speed in m/s (hover to see current wind gust speed)